Wind_Speed
20 20 19 20 20 21 21 22 21 21 23 26 30 30 27 21 18 17 18 20 31 26 25 27 28 41 22 10 6 13 6 9 9 11 7 4 5 5 5 6 3 6 2 5 4 6 5
19 19 20 20 20 20 20 21 22 21 21 24 28 26 25 27 25 22 25 21 30 30 33 22 30 32 22 21 15 15 15 16 15 16 9 7 4 4 6 4 5 3 6 4 5 4 4
20 19 19 19 19 20 21 20 21 22 22 23 27 21 24 24 24 25 27 28 25 29 35 27 33 31 36 9 16 19 23 22 19 20 6 5 5 5 5 6 3 5 5 3 5 2 1
20 20 19 19 18 20 20 21 21 21 21 23 27 20 23 25 23 26 25 27 22 19 23 26 27 30 10 13 17 24 20 23 20 22 18 11 15 8 5 3 6 5 5 3 3 3 2
21 20 19 19 19 19 20 20 20 20 20 21 23 17 16 16 17 21 24 19 18 21 20 21 20 11 5 12 17 22 19 9 14 18 15 13 8 5 5 4 4 6 3 1 4 1 2
21 21 20 19 19 19 19 20 19 19 17 17 19 20 22 23 17 11 18 23 37 19 5 10 14 8 6 4 8 15 14 13 9 5 7 9 6 4 5 5 4 4 4 2 1 3 0
22 22 22 20 19 19 18 18 18 18 14 12 12 14 18 22 22 14 6 5 8 7 26 12 3 8 1 7 10 15 8 5 6 7 5 5 8 4 3 2 2 5 4 3 1 2 2
22 23 22 21 20 19 18 18 17 16 13 8 7 5 13 18 19 19 21 6 3 1 10 11 7 5 6 4 8 14 9 5 6 5 2 7 4 1 2 4 5 5 4 2 2 0 2
22 24 23 21 20 20 19 18 17 16 12 9 6 4 4 10 9 15 16 8 5 6 5 6 4 5 3 7 5 8 7 3 7 7 6 6 2 2 2 5 6 5 4 2 1 5 0
21 23 24 22 21 20 20 18 17 16 13 10 7 5 5 7 3 6 5 10 8 5 5 12 9 6 4 3 6 5 6 3 5 4 5 6 3 3 4 5 2 2 2 1 2 4 3
20 20 24 23 22 21 21 20 17 14 13 11 9 7 5 6 4 3 6 9 6 4 7 9 8 6 6 5 2 8 8 7 5 3 5 3 2 5 6 1 2 2 1 2 1 2 4
20 21 22 24 23 22 21 22 19 14 11 11 10 9 6 3 2 3 1 0 4 6 2 5 5 7 6 6 3 1 4 7 2 6 7 3 1 2 2 1 2 2 3 5 4 2 3
19 20 22 24 24 24 23 22 19 13 8 8 9 10 9 6 4 5 1 6 5 7 3 3 2 3 1 4 4 5 4 5 3 5 3 5 3 1 1 2 3 4 5 3 4 4 5
21 20 22 24 24 24 25 25 21 16 9 7 8 7 6 7 7 5 1 5 10 4 3 2 2 5 5 5 4 3 3 4 4 4 4 4 5 2 1 1 2 3 4 4 4 1 5
23 21 21 23 24 25 26 27 23 19 13 6 7 4 4 10 6 4 5 7 6 6 3 2 4 4 5 3 2 3 2 2 1 2 4 4 1 1 2 2 3 2 3 3 0 2 3
21 21 21 22 24 25 26 28 27 21 13 8 4 3 6 13 6 4 6 4 2 2 2 3 3 2 4 5 3 3 0 2 2 1 2 3 3 1 1 1 3 2 4 2 1 1 4
18 21 22 22 23 25 26 28 29 23 13 9 3 3 9 12 5 6 4 1 1 1 2 2 1 1 2 1 2 1 1 1 3 2 1 3 2 3 2 6 7 3 3 2 2 3 3
17 20 21 22 23 24 25 27 29 24 18 6 3 3 11 9 4 2 3 2 1 0 1 1 1 1 0 1 1 3 4 3 6 5 3 1 3 3 7 2 4 3 6 6 4 4 3
15 18 20 21 23 24 25 27 28 24 18 3 2 2 5 3 4 2 2 3 2 1 2 1 2 2 3 1 2 1 1 1 6 5 4 3 1 2 6 5 2 4 5 4 3 2 7
12 15 18 21 22 23 24 26 27 24 14 4 3 3 4 4 1 6 4 0 1 2 3 2 2 2 2 1 1 2 1 1 5 3 3 2 3 6 6 4 3 4 5 7 6 4 3
10 13 15 18 20 22 24 24 25 24 12 3 3 0 3 3 4 2 3 5 3 2 2 0 3 3 1 1 2 3 2 1 1 3 3 3 4 3 6 11 8 12 9 9 16 14 9
9 12 14 15 17 19 21 22 23 24 10 7 3 2 2 1 2 2 2 5 6 2 5 3 4 2 3 4 6 4 2 3 5 1 5 2 3 1 5 8 6 9 15 17 20 19 18
9 11 13 14 16 17 19 20 21 21 11 6 3 2 3 3 1 3 3 3 4 4 3 3 6 1 3 7 5 6 5 3 1 6 6 4 2 3 5 4 8 9 9 17 7 7 17
11 11 12 14 15 15 16 16 17 18 16 6 3 3 3 1 1 3 1 2 3 3 3 2 5 5 3 1 4 2 3 6 6 7 5 5 3 2 4 7 3 6 2 4 13 9 15
15 14 12 13 13 14 14 14 14 14 13 9 4 2 2 2 2 3 3 4 4 3 3 4 5 4 2 4 3 5 2 2 2 4 7 5 4 2 2 2 10 8 3 5 6 7 12
16 15 13 13 13 13 12 12 11 10 10 6 6 4 3 3 3 1 1 1 2 2 4 3 0 1 4 2 2 2 4 3 3 3 5 5 4 4 3 1 5 4 1 2 2 5 4
18 17 16 15 14 14 12 11 10 8 8 6 2 4 2 0 3 4 3 3 3 1 2 3 2 1 2 2 1 3 4 2 3 5 5 4 3 12 9 4 8 10 7 1 1 6 2
18 19 19 19 17 16 14 12 11 9 7 6 3 2 0 2 4 7 4 4 2 2 2 2 2 2 2 2 3 3 3 4 1 3 5 7 6 5 5 6 10 8 5 9 6 2 3
16 19 19 20 20 19 17 13 12 11 9 6 3 3 3 3 5 6 11 15 8 7 4 0 2 2 4 3 1 0 3 2 3 4 3 3 7 5 10 8 4 5 5 5 1 3 4
Wind_Direction
17 17 15 16 13 15 16 15 17 21 23 21 19 22 22 27 28 23 34 51 81 93 92 83 99 118 99 82 35 14 68 119 126 131 100 101 75 116 109 106 65 78 121 56 79 55 61
17 15 13 13 16 14 14 14 16 18 20 19 18 19 24 23 31 54 46 65 89 85 86 104 73 112 96 68 348 37 99 106 110 115 90 56 113 107 90 75 75 88 91 96 44 69 34
16 15 13 11 13 15 14 13 16 18 15 14 18 33 26 21 32 50 52 64 75 75 78 91 74 79 62 73 11 49 80 78 96 111 79 60 121 74 134 91 136 114 82 54 15 22 77
15 15 11 10 9 14 15 14 17 18 17 21 22 33 38 43 49 48 58 67 77 84 83 81 83 66 80 359 36 54 81 78 82 88 86 82 88 90 54 105 35 68 57 97 316 346 9
15 14 11 9 7 10 13 14 16 17 18 24 31 33 37 38 35 43 52 51 73 85 76 89 76 74 52 9 32 34 44 43 66 79 72 70 66 71 35 70 43 16 140 120 327 238 28
14 14 9 7 5 7 9 12 13 14 20 35 43 44 46 42 31 51 87 64 58 49 14 69 42 76 359 14 351 24 49 51 46 30 32 37 53 71 33 52 188 167 97 80 243 345 11
11 10 7 6 5 6 8 10 10 9 20 44 54 57 29 34 48 61 82 55 15 16 45 73 72 90 93 330 34 22 15 30 43 44 75 20 67 87 66 28 113 116 113 133 36 27 333
8 7 8 9 7 6 7 7 7 4 16 24 49 49 35 23 32 63 71 70 39 63 64 44 77 76 63 8 36 5 22 68 55 75 42 43 72 345 314 43 74 70 89 15 334 241 289
9 5 6 5 7 6 5 8 6 3 15 15 14 11 16 4 11 25 48 52 23 1 80 36 50 46 342 20 41 347 30 64 72 60 53 96 99 333 103 54 74 37 91 33 214 316 307
11 6 2 5 5 6 6 9 7 5 13 8 1 356 348 5 24 16 40 2 353 6 72 346 2 23 15 351 40 359 22 69 50 102 70 66 356 78 83 74 86 97 346 47 9 34 270
8 10 2 3 5 4 2 3 6 10 20 9 5 359 357 13 110 84 335 347 353 11 61 307 325 318 341 80 166 356 12 34 76 97 94 238 84 72 70 37 64 142 14 7 35 70 45
6 8 5 4 5 5 2 358 359 8 17 22 16 12 355 356 56 117 142 112 84 43 44 341 316 352 11 12 38 29 40 50 103 60 48 74 6 61 113 41 77 127 69 44 48 73 20
7 6 4 7 8 8 6 4 359 1 3 8 16 9 18 3 340 335 136 132 37 74 267 303 306 357 307 26 50 52 40 35 72 84 14 354 360 335 136 88 23 76 54 347 354 7 225
8 8 7 10 9 10 9 6 3 354 344 330 333 346 359 359 331 333 169 61 68 250 277 319 341 343 29 6 33 42 64 38 25 73 100 116 348 191 195 208 138 61 127 140 218 303 289
8 9 6 10 10 10 9 9 5 358 343 335 334 335 14 359 359 340 67 49 165 194 162 85 347 39 352 20 89 75 65 145 59 60 120 122 337 65 194 319 97 169 57 185 120 210 274
3 9 8 7 10 10 10 8 7 2 357 353 343 359 13 357 3 58 68 105 338 269 121 105 133 159 20 334 33 63 258 217 158 147 139 176 109 263 217 80 29 144 131 108 53 285 283
359 5 8 8 7 9 10 8 7 4 1 351 354 48 355 358 11 49 84 108 104 340 8 126 252 108 136 122 31 28 200 282 191 192 107 143 119 247 156 200 181 150 182 154 167 216 207
357 0 6 7 7 8 10 9 7 5 3 7 62 36 351 3 48 27 55 55 321 189 44 314 305 340 164 284 151 171 198 221 172 150 138 262 137 201 218 269 185 182 180 160 144 223 226
352 354 0 5 7 7 8 9 8 5 7 8 78 225 348 2 90 29 336 13 355 18 280 332 341 27 22 331 342 298 308 3 154 153 162 179 31 14 348 359 31 210 197 174 108 80 218
347 351 353 357 2 7 6 8 9 8 9 41 75 31 338 42 35 125 132 101 343 360 315 325 304 37 22 328 194 302 274 236 184 187 142 117 192 198 198 200 149 215 197 187 159 196 207
334 341 347 352 356 2 6 7 9 9 14 43 36 261 169 332 356 69 128 162 170 198 199 111 311 254 212 288 301 244 249 346 135 193 118 134 247 212 262 263 251 244 231 198 210 215 208
319 329 338 342 347 358 4 8 10 11 19 70 90 100 18 111 324 341 322 208 175 197 167 222 193 169 203 233 208 240 185 208 219 109 158 159 262 359 270 276 266 259 244 231 232 234 251
309 315 322 332 340 350 357 6 12 18 24 79 70 91 101 305 72 85 228 206 217 160 204 192 193 170 248 243 235 245 227 251 240 170 192 167 198 14 268 330 302 283 249 219 197 208 219
289 302 311 321 331 339 345 359 11 19 34 69 74 113 89 273 162 206 243 226 245 240 247 209 155 157 222 356 300 229 206 222 206 222 187 147 142 164 280 340 343 240 244 201 203 237 217
285 292 298 304 316 327 333 346 2 15 25 46 49 85 112 281 233 285 226 226 307 305 258 246 234 206 92 36 337 320 300 212 169 191 208 170 133 287 291 264 291 312 20 146 174 280 215
282 285 285 286 296 309 319 329 343 358 12 26 42 47 94 118 242 314 258 224 215 239 323 243 287 116 72 84 80 272 263 284 213 120 52 120 128 159 157 238 264 252 337 184 148 293 218
278 278 279 277 280 291 305 310 316 327 345 5 19 18 89 162 255 149 197 204 139 122 235 305 303 77 52 112 208 223 268 247 268 189 177 133 170 212 224 256 271 243 217 354 59 242 176
284 280 277 275 272 275 279 289 291 295 309 335 311 288 209 194 270 198 206 169 135 153 171 264 22 331 62 164 177 225 202 236 290 195 189 176 161 202 191 221 264 162 77 172 216 212 224
281 281 281 277 275 262 263 263 275 276 279 294 290 233 246 220 262 237 237 232 194 171 151 283 258 218 205 106 231 292 248 234 195 260 147 238 197 185 195 226 274 215 235 246 209 241 243
Height
831 828 824 819 816 811 807 802 797 793 789 784 778 772 765 760 756 750 743 737 734 736 737 737 741 745 751 766 774 772 772 773 774 775 777 780 785 793 800 803 804 812 814 814 815 815 817
833 829 825 820 816 813 808 804 800 795 791 787 781 774 769 764 760 755 750 745 745 746 744 745 745 749 756 771 779 774 774 774 775 776 779 782 786 790 801 807 809 813 817 818 817 818 820
834 830 826 822 817 814 809 807 803 798 794 790 784 778 774 769 766 763 758 755 754 754 748 750 751 752 753 787 780 778 777 777 778 778 783 786 788 791 800 809 812 815 822 821 823 820 822
835 831 827 823 819 815 811 808 806 801 797 792 788 784 779 775 771 769 767 763 762 762 761 761 758 758 779 784 782 780 780 780 782 782 786 789 790 795 804 810 816 820 827 828 824 822 822
835 832 828 823 820 817 813 810 807 803 800 797 793 789 785 781 776 774 771 770 768 767 767 769 768 770 791 787 785 786 785 786 786 786 789 790 792 807 812 822 833 835 843 827 826 823 823
837 833 828 824 820 818 814 812 808 804 800 799 797 794 790 785 780 778 776 774 771 770 767 770 774 780 795 795 791 789 790 789 790 790 793 798 810 821 830 834 843 828 841 829 825 826 826
839 834 829 825 821 818 815 813 810 806 802 799 799 797 793 791 786 782 777 776 779 783 777 789 796 796 799 797 796 794 793 792 794 798 809 814 827 845 828 825 824 827 827 828 828 828 830
840 836 831 827 823 819 816 814 811 807 804 801 799 799 797 795 791 789 784 785 794 795 795 796 797 799 800 800 801 799 796 799 803 813 811 824 835 828 828 826 827 827 831 834 831 828 831
842 838 833 828 824 821 817 814 811 807 805 802 800 799 799 797 797 793 791 794 797 795 799 804 805 806 807 806 809 807 803 806 813 819 821 826 831 826 827 831 832 839 837 836 839 834 832
844 839 834 830 826 822 818 815 812 808 806 803 801 800 799 798 798 796 798 798 797 796 822 818 809 809 808 807 811 808 807 809 814 825 826 832 828 828 831 833 834 837 835 835 836 847 859
845 840 835 831 828 823 819 815 812 809 806 804 801 800 798 798 800 802 800 798 798 797 843 823 816 809 809 811 814 812 810 810 819 821 827 838 832 833 833 833 831 836 834 836 838 847 873
845 841 838 833 828 825 820 816 812 809 807 804 802 800 799 799 799 801 802 802 804 831 863 832 819 817 814 813 814 813 814 813 819 826 829 833 830 831 832 831 832 832 837 847 852 859 890
846 843 839 835 829 825 821 817 812 808 806 804 802 801 800 799 800 798 799 802 828 852 840 833 826 822 819 817 817 819 823 827 833 848 861 844 835 832 831 834 833 837 854 892 880 885 869
848 844 840 836 831 827 822 817 813 809 805 803 802 800 800 800 799 798 797 810 843 848 837 823 823 822 822 820 818 821 825 842 831 836 863 872 865 834 832 831 833 840 850 887 875 888 871
850 846 842 837 833 828 823 818 813 808 804 802 800 799 799 799 797 797 802 835 845 837 824 826 826 826 826 821 820 825 829 834 829 829 839 853 839 832 832 830 832 840 852 843 847 857 854
852 848 843 839 834 829 824 819 814 808 804 802 801 799 800 798 796 795 813 839 833 825 822 823 824 823 828 824 823 824 828 826 827 827 829 833 842 833 832 831 834 834 839 851 856 864 861
853 849 845 841 836 830 825 821 815 810 805 803 802 806 801 798 798 804 836 837 826 824 825 827 825 821 820 822 822 824 826 826 828 828 828 829 835 839 833 836 838 838 835 846 852 840 854
854 850 846 842 838 833 827 822 816 810 806 805 805 821 803 800 817 837 836 827 825 826 826 826 826 823 823 824 822 822 823 823 825 828 831 831 842 851 832 825 827 829 835 843 856 856 854
855 852 848 844 839 834 829 824 818 812 808 806 813 819 804 802 836 846 832 830 830 829 827 826 825 824 824 825 826 823 822 821 824 827 829 831 843 868 841 832 829 829 832 835 839 843 837
854 852 849 845 841 836 831 826 820 814 810 809 815 828 817 815 827 829 828 829 829 829 829 828 827 825 825 826 826 826 823 823 826 827 826 829 843 839 846 819 825 826 824 831 832 837 832
853 852 849 846 842 838 833 828 823 817 812 812 821 836 834 842 832 829 827 827 826 826 829 828 828 828 828 829 826 828 824 823 826 825 830 834 844 848 838 831 828 820 816 821 820 810 818
852 851 849 846 843 839 835 830 825 819 814 815 826 829 833 835 833 828 833 832 826 823 827 826 828 824 828 831 830 826 824 826 826 831 833 838 839 838 841 825 825 822 813 809 806 804 798
850 850 849 847 844 841 837 833 828 823 818 820 826 829 831 839 835 838 836 825 823 821 821 820 825 826 828 827 825 825 826 826 825 832 837 840 842 845 836 828 825 811 791 787 791 792 785
849 849 848 847 845 842 839 835 832 828 825 825 827 827 832 833 835 832 825 825 823 823 822 819 822 824 820 820 820 820 823 826 829 829 831 842 842 847 845 836 836 775 774 774 781 776 776
846 846 846 846 844 843 841 838 834 831 829 828 828 829 831 832 834 828 826 827 825 825 826 823 820 819 819 822 827 824 822 816 820 825 830 830 837 845 851 860 810 768 768 776 778 764 760
843 843 843 843 842 842 840 838 836 833 831 830 830 829 830 833 829 825 826 825 829 829 829 821 820 819 821 829 831 823 819 806 814 822 828 829 830 837 847 847 809 770 767 765 765 774 750
838 839 840 840 840 839 838 837 836 834 833 831 830 830 830 834 826 824 827 826 827 831 832 828 821 821 821 833 832 833 831 819 815 817 829 830 832 823 824 819 800 772 768 767 770 759 747
834 834 835 835 836 836 835 835 835 834 832 832 831 830 831 833 824 820 819 821 825 829 828 825 825 826 831 830 831 829 833 818 816 813 820 822 827 825 817 812 811 759 768 768 750 746 745
828 829 829 830 831 831 831 831 831 832 832 831 831 830 830 831 823 817 814 812 812 814 824 826 826 825 822 834 834 833 824 826 819 808 808 808 798 807 806 782 758 759 750 747 748 746 743